Hourly Data Report for December 05, 2010

IQALUIT CLIMATE
NUNAVUT

63°44'50.000" N
68°32'40.000" W
33.50 m
2402592
71321
XFB

Download Data

Hourly Data (December 2010)
Hourly Data Report for December 5, 2010
TIME
LST
Temp Definition
°C
Dew Point Definition
°C
Rel Hum Definition
%
Precip. Amount Definition
mm

Wind Dir Definition
10's deg

Wind Spd Definition
km/h
Visibility Definition
km
Stn Press Definition
kPa
Hmdx Definition


Wind Chill Definition


Weather Definition


00:00 -3.5 -4.7 91   32 15   101.89   -9 LegendNANA
01:00 -3.6 -4.9 91   32 19   101.88   -10 LegendNANA
02:00 -3.7 -4.9 91   32 17   101.92   -9 LegendNANA
03:00 -3.7 -4.9 91   32 17   101.94   -9 LegendNANA
04:00 -3.6 -4.9 91   33 17   101.98   -9 LegendNANA
05:00 -3.5 -4.9 90   32 15   102.04   -9 LegendNANA
06:00 -3.4 -4.9 89   32 15   102.03   -9 LegendNANA
07:00 -3.5 -5.0 89   32 17   102.07   -9 LegendNANA
08:00 -3.5 -5.1 89   31 17   102.07   -9 LegendNANA
09:00 -3.1 -5.5 83   34 24   102.10   -10 LegendNANA
10:00 -3.0 -5.5 83   34 19   102.14   -9 LegendNANA
11:00 -3.4 -5.0 89   33 17   102.14   -9 LegendNANA
12:00 -3.6 -5.0 90   32 17   102.13   -9 LegendNANA
13:00 -4.6 -5.9 91   33 22   102.16   -11 LegendNANA
14:00 -6.5 -7.7 91   32 30   102.18   -15 LegendNANA
15:00 -7.0 -8.1 92   33 33   102.21   -16 LegendNANA
16:00 -7.4 -8.7 90   33 33   102.19   -17 LegendNANA
17:00 -7.6 -8.9 90   33 33   102.19   -17 LegendNANA
18:00 -7.6 -9.0 90   33 33   102.13   -17 LegendNANA
19:00 -7.8 -9.0 91   33 30   102.08   -17 LegendNANA
20:00 -8.0 -9.2 91   32 35   102.01   -18 LegendNANA
21:00 -8.7 -9.7 92   33 33   101.94   -18 LegendNANA
22:00 -8.6 -9.3 95   33 35   101.87   -18 LegendNANA
23:00 -7.8 -8.2 97   32 28   101.80   -16 LegendNANA

Notes on Data Quality.

Legend

  • E = Estimated
  • M = Missing
  • NA = Not Available*
  • [empty] = Indicates an unobserved value
Date modified: